| time (UTC) | temp C | wind direction | speed KPH | gust KPH | rain 1hr cm | rain 24hr cm | rain mn cm | humidity % | barometer mb |
| 20260508013058 | 20 | 302 | 3.2 | 14.5 | 0.00 | 0.00 | 0.00 | 70 | 1014.3 |
| 20260508011559 | 20 | 0 | 3.2 | 11.3 | 0.00 | 0.00 | 0.00 | 68 | 1014.3 |
| 20260508010054 | 21 | 192 | 1.6 | 6.4 | 0.00 | 0.00 | 0.00 | 65 | 1014.2 |
| 20260508004558 | 22 | 236 | 1.6 | 9.7 | 0.00 | 0.00 | 0.00 | 63 | 1014.1 |
| 20260508003103 | 22 | 184 | 3.2 | 11.3 | 0.00 | 0.00 | 0.00 | 63 | 1014.1 |
| 20260508001550 | 22 | 225 | 1.6 | 11.3 | 0.00 | 0.00 | 0.00 | 61 | 1014.0 |
| 20260508000052 | 22 | 0 | 1.6 | 12.9 | 0.00 | 0.00 | 0.00 | 62 | 1014.1 |
| 20260507234550 | 23 | 248 | 1.6 | 14.5 | 0.00 | 0.00 | 0.00 | 59 | 1014.2 |
| 20260507233056 | 23 | 0 | 3.2 | 17.7 | 0.00 | 0.00 | 0.00 | 59 | 1014.1 |
| 20260507231557 | 23 | 180 | 1.6 | 14.5 | 0.00 | 0.00 | 0.00 | 59 | 1014.1 |
| 20260507230053 | 23 | 165 | 3.2 | 11.3 | 0.00 | 0.00 | 0.00 | 58 | 1014.0 |
| 20260507224601 | 23 | 19 | 3.2 | 11.3 | 0.00 | 0.00 | 0.00 | 58 | 1014.1 |
| 20260507223052 | 23 | 193 | 3.2 | 11.3 | 0.00 | 0.00 | 0.00 | 58 | 1014.2 |
| 20260507221553 | 23 | 205 | 3.2 | 14.5 | 0.00 | 0.00 | 0.00 | 59 | 1014.3 |
| 20260507220057 | 24 | 273 | 3.2 | 14.5 | 0.00 | 0.00 | 0.00 | 59 | 1014.5 |
| 20260507214553 | 23 | 105 | 1.6 | 14.5 | 0.00 | 0.00 | 0.00 | 61 | 1014.6 |
| 20260507213056 | 24 | 215 | 3.2 | 16.1 | 0.00 | 0.00 | 0.00 | 58 | 1014.8 |
| 20260507211554 | 24 | 308 | 1.6 | 17.7 | 0.00 | 0.00 | 0.00 | 59 | 1014.9 |
| 20260507210116 | 24 | 178 | 1.6 | 14.5 | 0.00 | 0.00 | 0.00 | 58 | 1014.9 |
| 20260507204557 | 24 | 156 | 3.2 | 12.9 | 0.00 | 0.00 | 0.00 | 58 | 1015.1 |
| 20260507203056 | 24 | 252 | 4.8 | 14.5 | 0.00 | 0.00 | 0.00 | 59 | 1015.1 |
| 20260507201548 | 24 | 119 | 3.2 | 16.1 | 0.00 | 0.00 | 0.00 | 60 | 1015.1 |
| 20260507200106 | 24 | 287 | 3.2 | 12.9 | 0.00 | 0.00 | 0.00 | 58 | 1015.3 |
| 20260507194557 | 23 | 0 | 1.6 | 17.7 | 0.00 | 0.00 | 0.00 | 59 | 1015.4 |
| 20260507193552 | 24 | 315 | 3.2 | 11.3 | 0.00 | 0.00 | 0.00 | 59 | 1015.5 |
| 20260507144606 | 16 | 152 | 0.0 | 4.8 | 0.00 | 0.00 | 0.00 | 79 | 1016.8 |
| 20260507143106 | 16 | 217 | 0.0 | 6.4 | 0.00 | 0.00 | 0.00 | 82 | 1016.8 |
| 20260507141610 | 15 | 0 | 0.0 | 1.6 | 0.00 | 0.00 | 0.00 | 85 | 1016.5 |
| 20260507140110 | 13 | 0 | 0.0 | 1.6 | 0.00 | 0.00 | 0.00 | 90 | 1016.4 |
| 20260507134611 | 12 | 0 | 0.0 | 0.0 | 0.00 | 0.00 | 0.00 | 93 | 1016.2 |
| 20260507133134 | 11 | 0 | 0.0 | 0.0 | 0.00 | 0.00 | 0.00 | 93 | 1016.1 |
| 20260507131603 | 11 | 0 | 0.0 | 0.0 | 0.00 | 0.00 | 0.00 | 93 | 1015.9 |
| 20260507130057 | 11 | 0 | 0.0 | 0.0 | 0.00 | 0.00 | 0.00 | 92 | 1015.8 |
| 20260507124605 | 11 | 0 | 0.0 | 0.0 | 0.00 | 0.00 | 0.00 | 91 | 1015.8 |
| 20260507123055 | 11 | 0 | 0.0 | 0.0 | 0.00 | 0.00 | 0.00 | 90 | 1015.7 |
| 20260507121600 | 11 | 0 | 0.0 | 1.6 | 0.00 | 0.00 | 0.00 | 91 | 1015.8 |
| 20260507120053 | 11 | 0 | 0.0 | 0.0 | 0.00 | 0.00 | 0.00 | 90 | 1015.9 |
| 20260507114559 | 11 | 0 | 0.0 | 0.0 | 0.00 | 0.00 | 0.00 | 90 | 1015.9 |
| 20260507113055 | 11 | 0 | 0.0 | 0.0 | 0.00 | 0.00 | 0.00 | 89 | 1015.9 |
| 20260507111559 | 12 | 0 | 0.0 | 0.0 | 0.00 | 0.00 | 0.00 | 88 | 1015.9 |
| 20260507110055 | 12 | 0 | 0.0 | 0.0 | 0.00 | 0.00 | 0.00 | 89 | 1016.1 |
| 20260507104554 | 12 | 0 | 0.0 | 0.0 | 0.00 | 0.00 | 0.00 | 88 | 1016.1 |
| 20260507103053 | 12 | 0 | 0.0 | 1.6 | 0.00 | 0.00 | 0.00 | 89 | 1016.1 |
| 20260507101602 | 12 | 0 | 0.0 | 1.6 | 0.00 | 0.00 | 0.00 | 89 | 1016.2 |
| 20260507100051 | 12 | 0 | 0.0 | 3.2 | 0.00 | 0.00 | 0.00 | 89 | 1016.2 |
| 20260507094550 | 12 | 0 | 0.0 | 1.6 | 0.00 | 0.00 | 0.00 | 88 | 1016.4 |
| 20260507093057 | 12 | 0 | 0.0 | 1.6 | 0.00 | 0.00 | 0.00 | 88 | 1016.5 |
| 20260507091559 | 12 | 0 | 0.0 | 0.0 | 0.00 | 0.00 | 0.00 | 88 | 1016.7 |
| 20260507090110 | 12 | 0 | 0.0 | 0.0 | 0.00 | 0.00 | 0.00 | 87 | 1016.9 |
| 20260507084552 | 12 | 0 | 0.0 | 0.0 | 0.00 | 0.00 | 0.00 | 87 | 1017.0 |
| 20260507083052 | 12 | 0 | 0.0 | 0.0 | 0.00 | 0.00 | 0.00 | 86 | 1017.2 |
| 20260507081553 | 13 | 0 | 0.0 | 0.0 | 0.00 | 0.00 | 0.00 | 86 | 1017.2 |
| 20260507080055 | 13 | 0 | 0.0 | 0.0 | 0.00 | 0.00 | 0.00 | 86 | 1017.2 |
| 20260507074558 | 13 | 0 | 0.0 | 0.0 | 0.00 | 0.00 | 0.00 | 85 | 1017.2 |
| 20260507073053 | 13 | 0 | 0.0 | 0.0 | 0.00 | 0.00 | 0.00 | 85 | 1017.3 |
| 20260507071553 | 13 | 0 | 0.0 | 0.0 | 0.00 | 0.00 | 0.00 | 84 | 1017.3 |
| 20260507070054 | 13 | 0 | 0.0 | 0.0 | 0.00 | 0.00 | 0.00 | 84 | 1017.4 |
| 20260507064606 | 13 | 0 | 0.0 | 0.0 | 0.00 | 0.00 | 0.00 | 83 | 1017.5 |
| 20260507063056 | 14 | 0 | 0.0 | 0.0 | 0.00 | 0.00 | 0.00 | 83 | 1017.5 |
| 20260507061553 | 14 | 0 | 0.0 | 0.0 | 0.00 | 0.00 | 0.00 | 82 | 1017.5 |
| 20260507060054 | 14 | 0 | 0.0 | 0.0 | 0.00 | 0.00 | 0.00 | 82 | 1017.6 |
| 20260507054557 | 14 | 0 | 0.0 | 0.0 | 0.00 | 0.00 | 0.00 | 81 | 1017.5 |
| 20260507053051 | 15 | 0 | 0.0 | 0.0 | 0.00 | 0.00 | 0.00 | 80 | 1017.6 |
| 20260507051551 | 15 | 0 | 0.0 | 0.0 | 0.00 | 0.00 | 0.00 | 79 | 1017.5 |
| 20260507050052 | 15 | 0 | 0.0 | 0.0 | 0.00 | 0.00 | 0.00 | 78 | 1017.3 |
| 20260507044555 | 15 | 0 | 0.0 | 0.0 | 0.00 | 0.00 | 0.00 | 78 | 1017.4 |
| 20260507043100 | 16 | 0 | 0.0 | 0.0 | 0.00 | 0.00 | 0.00 | 77 | 1017.4 |
| 20260507041603 | 16 | 0 | 0.0 | 0.0 | 0.00 | 0.00 | 0.00 | 75 | 1017.2 |
| 20260507040059 | 16 | 0 | 0.0 | 1.6 | 0.00 | 0.00 | 0.00 | 74 | 1017.2 |
| 20260507034557 | 17 | 0 | 0.0 | 3.2 | 0.00 | 0.00 | 0.00 | 73 | 1017.1 |
| 20260507033053 | 17 | 0 | 0.0 | 6.4 | 0.00 | 0.00 | 0.00 | 72 | 1017.0 |
| 20260507031552 | 17 | 0 | 0.0 | 3.2 | 0.00 | 0.00 | 0.00 | 71 | 1016.8 |
| 20260507030058 | 17 | 0 | 0.0 | 3.2 | 0.00 | 0.00 | 0.00 | 70 | 1016.7 |
| 20260507024553 | 18 | 0 | 0.0 | 3.2 | 0.00 | 0.00 | 0.00 | 69 | 1016.6 |
| 20260507023108 | 18 | 0 | 1.6 | 6.4 | 0.00 | 0.00 | 0.00 | 67 | 1016.4 |
| 20260507021553 | 18 | 221 | 0.0 | 6.4 | 0.00 | 0.00 | 0.00 | 65 | 1016.3 |
| 20260507020051 | 19 | 300 | 0.0 | 8.0 | 0.00 | 0.00 | 0.00 | 63 | 1016.1 |
| 20260507014604 | 19 | 180 | 0.0 | 11.3 | 0.00 | 0.00 | 0.00 | 64 | 1016.1 |